Regional Weather Roundup
Issued by NWS Sioux Falls, SD

Home | Current Version | Previous Version | Graphics & Text | Print | Product List | Glossary Off
Versions: 1 2 3 4 5 6 7 8 9 10 11 12 13 14 15 16 17 18 19 20 21 22 23 24 25 26 27 28 29 30 31 32 33 34 35 36 37 38 39 40 41 42 43 44 45 46 47 48 49 50

000
ASUS43 KFSD 231002
RWRFSD

WEATHER ROUNDUP FOR SE SOUTH DAKOTA/SW MINNESOTA/NW IOWA
NATIONAL WEATHER SERVICE SIOUX FALLS SD
500 AM CDT WED JUL 23 2014

NOTE: "FAIR" INDICATES FEW OR NO CLOUDS BELOW 12,000 FEET WITH NO
SIGNIFICANT WEATHER AND OR OBSTRUCTIONS TO VISIBILITY.


SDZ038>040-050-052>070-231100-
SOUTHEAST SOUTH DAKOTA

CITY           SKY/WX    TMP DP  RH WIND       PRES   REMARKS
CHAMBERLAIN    MOCLDY    60  58  94 SE3       30.25R
HURON          CLEAR     61  57  87 E3        30.25R
MADISON        FAIR      55  55 100 NE7       30.26S
MITCHELL       PTCLDY    61  58  90 E3        30.25R
SIOUX FALLS    PTCLDY    59  56  89 NE3       30.25R
WINNER         FAIR      65  58  78 S6        30.27R
YANKTON        CLEAR     63  55  77 SE3       30.24R
$$

MNZ071-072-080-081-089-090-097-098-231100-
SOUTHWEST MINNESOTA

CITY           SKY/WX    TMP DP  RH WIND       PRES   REMARKS
FAIRMONT       CLEAR     57  52  82 N6        30.22S
JACKSON        PTCLDY    55  52  88 NE5       30.23F
LUVERNE        PTCLDY    61  55  82 N5        30.25R
MARSHALL       CLEAR     57  54  88 N8        30.24R
MONTEVIDEO     CLEAR     57  55  94 N5        30.27R
PIPESTONE      CLEAR     57  54  88 NE3       30.27R
REDWOOD FALLS  CLEAR     61  55  81 N7        30.23R
TRACY          CLEAR     59  56  89 NW7       30.26R
WINDOM         PTCLDY    55  54  94 N6        30.23F
WORTHINGTON    PTCLDY    55  54  94 NW6       30.25S
$$

IAZ001>003-012>014-020>022-031-032-NEZ013-014-SDZ071-231100-
NORTHWEST IOWA

CITY           SKY/WX    TMP DP  RH WIND       PRES   REMARKS
CHEROKEE       CLEAR     59  58  97 N6        30.21F
DENISON        CLEAR     63  57  82 NE5       30.19R
ESTHERVILLE    PTCLDY    57  54  89 N7        30.22S
LE MARS        CLEAR     59  57  94 CALM      30.22R
ORANGE CITY    CLEAR     63  54  72 NE6       30.22S
SHELDON        PTCLDY    55  55 100 NE5       30.21F
SIOUX CITY     CLEAR     60  58  92 CALM      30.22R
SPENCER        MOCLDY    58  55  90 CALM      30.23R
STORM LAKE     CLEAR     63  59  88 NE9G15    30.22F
$$

ABBREVIATIONS USED IN REMARKS
   TC - TEMPERATURE IN CELSIUS
  WCI - WIND CHILL INDEX
   HX - HEAT INDEX
  VSB - VISIBILITY




USA.gov is the U.S. government's official web portal to all federal, state and local government web resources and services.